Kuiper-00098

operational
NORAD ID: 65137 Int'l Des: 2025-171 Owner: KUIP Country: US Constellation: kuiper
LEOCIRCULAR

Über Kuiper-00098

Beschreibung wird geladen...

Live-Position

3D-Globus wird geladen...

Nächste Überflüge

Höhenverlauf

Altitude vs Time

uPlot chart will show altitude changes over time

Zweizeiliger Elementsatz

1 65137U 25171F 25351.89323963 .00002406 00000-0 34454-3 0 9992
2 65137 51.8981 164.7893 0007826 215.9686 144.0750 14.79945688 20053
Epoch: 17. Dez. 2025 • Age: 21 hours

Aktueller Status

Höhe 643.7 km
Geschwindigkeit 7.54 km/s
Subsatellitenpunkt -51.89°S, 65.92°E
Startdatum 11. Aug. 2025
Alter 0.3 years
Typ internet

Technische Details

Klassifizierung Payload
Masse 490.00 kg
Trockenmasse 490.00 kg
Gesamtmasse 490.00 kg
Länge 1.80 m
Durchmesser 0.70 m
Spannweite 5.00 m
Form Box + 2 pan
Hersteller KUIP
Bus-Typ Kuiper
Phasenstatus In Orbit
Besitzer/Staat KUIP/US

Große Konstellationen

Loading constellations...